[[{"header":{"parameterUnit":"m.s-1","parameterCategory":2,"la1":30.2991,"la2":30.254,"lo1":-89.0895,"lo2":-89.0444,"dy":0.0017,"dx":0.0017,"nx":28,"ny":28,"refTime":"2023-09-12T21:00:00:Z","depth":"0","parameterNumber":2,"parameterNumberName":"U-component_of_CURRENTS"},"data":[0,0,0,0,0,0,0,0,0,0,0,0,0,0,0,0,0,0,0,0,0,0,0,0,0,0,0,0,0,0,0,0,0,0,0,0,0,0,0,0,0,0,0,0,0,0,0,0,0,0,0,0,0,0,0,0,0,0,0.2826,0.2826,0,0.2863,0.2863,0.2864,0.2869,0.2868,0.2867,0.2867,0.2865,0.2866,0.2866,0,0,0,0,0,0,0,0,0,0,0,0,0,0.2759,0.276,0.2826,0.2826,0.2826,0.2863,0.2863,0.2864,0.2869,0.2868,0.2867,0.2866,0.2865,0.2865,0.2866,0,0,0,0,0,0,0,0,0,0,0,0,0,0.2794,0.2761,0.2826,0.283,0.2831,0.2862,0.2863,0.2864,0.2869,0.2868,0.2867,0.2866,0.2865,0.2865,0.2866,0.2891,0,0,0.2869,0.2869,0,0,0,0,0,0,0,0,0.2792,0.2797,0.283,0.283,0.2831,0.2857,0.2839,0.287,0.2869,0.2858,0.2867,0.2865,0.2857,0.2859,0.2873,0.2891,0.2891,0.2869,0.2869,0.287,0.287,0,0,0,0,0,0,0,0.2789,0.2795,0.2844,0.283,0.2831,0.283,0.2834,0.2845,0.2864,0.2859,0.2858,0.2858,0.2858,0.2872,0.2873,0.2891,0.2869,0.287,0.287,0.2871,0.293,0.2931,0,0,0,0,0,0,0.278,0.2793,0.2842,0.2844,0.2805,0.2832,0.2837,0.2852,0.2865,0.2866,0.2859,0.2858,0.2871,0.2872,0.2873,0.2889,0.287,0.2871,0.2871,0.2929,0.293,0.2931,0,0,0,0,0,0,0.2779,0.2785,0.2841,0.2816,0.2822,0.2834,0.2851,0.2853,0.2866,0.2865,0.2865,0.2868,0.2871,0.2872,0.2903,0.2889,0.2871,0.2872,0.2928,0.2929,0.2931,0.293,0,0,0,0,0,0,0.2777,0.2785,0.2805,0.2816,0.2823,0.2865,0.2852,0.2855,0.2866,0.2865,0.2873,0.2872,0.287,0.2902,0.2904,0.289,0.2872,0.2926,0.2928,0.293,0.2928,0.2931,0.2933,0,0,0,0,0,0.2775,0.2806,0.2806,0.2812,0.2848,0.2865,0.2871,0.2876,0.2867,0.2882,0.2897,0.2872,0.2915,0.2905,0.2906,0.2892,0.2925,0.2928,0.293,0.2927,0.293,0.2933,0,0,0,0,0,0,0.2775,0.281,0.281,0.2847,0.2855,0.2865,0.288,0.2879,0.2904,0.2902,0.2899,0.2901,0.2919,0.2919,0.2907,0.2918,0.291,0.2913,0.2907,0.291,0.2913,0.2944,0.2873,0,0,0,0,0,0.2787,0.2829,0.2838,0.2866,0.2869,0.2874,0.2885,0.2886,0.29,0.291,0.2916,0.2924,0.2932,0.2933,0.2947,0.296,0.2985,0.295,0.2953,0.2955,0.2983,0.3026,0.3035,0.2939,0.2939,0.2939,0,0,0.2793,0.2817,0.2839,0.2871,0.2876,0.2893,0.2879,0.2894,0.2913,0.2906,0.294,0.2938,0.2942,0.2958,0.2963,0.2952,0.2991,0.2958,0.2959,0.2988,0.303,0.3039,0.3047,0.2941,0.2941,0.294,0,0,0.2814,0.2844,0.2876,0.2889,0.2901,0.2912,0.2914,0.2927,0.2938,0.2974,0.2963,0.2971,0.299,0.2987,0.2987,0.3018,0.3009,0.2999,0.3027,0.3067,0.3075,0.3083,0.3107,0.3117,0.2992,0.2992,0.2992,0,0.2812,0.2857,0.2884,0.2904,0.2914,0.2919,0.2933,0.2955,0.2979,0.2988,0.2988,0.3014,0.3011,0.3017,0.3028,0.3021,0.3042,0.3007,0.307,0.3078,0.3086,0.3109,0.312,0.2992,0.2992,0.2992,0.2992,0,0.2858,0.288,0.2894,0.2932,0.2951,0.2965,0.2984,0.3006,0.3018,0.3031,0.3052,0.3062,0.3073,0.3057,0.3057,0.3087,0.3082,0.307,0.3059,0.3095,0.3117,0.3129,0.2992,0.2992,0.2992,0.2992,0,0,0.2865,0.2917,0.2918,0.292,0.2963,0.2971,0.3014,0.3041,0.3049,0.3086,0.3105,0.3123,0.3117,0.312,0.3098,0.3132,0.3191,0.3128,0.313,0.3147,0.3275,0.3065,0.3058,0.3187,0.319,0.3191,0.326,0,0.2877,0.2913,0.2949,0.2968,0.2973,0.3,0.3033,0.306,0.3083,0.311,0.3128,0.3143,0.3141,0.313,0.317,0.319,0.3226,0.3174,0.3244,0.3246,0.3051,0.3065,0.2865,0.2892,0.3272,0.3274,0.3275,0,0.2893,0.2916,0.294,0.2958,0.2963,0.2986,0.3016,0.3047,0.3093,0.3109,0.314,0.3158,0.321,0.3201,0.3288,0.3254,0.328,0.3299,0.3302,0.3122,0.3057,0.2922,0.2899,0.278,0.3293,0.3291,0.329,0,0.2857,0.2894,0.2912,0.2923,0.2962,0.2974,0.3,0.3039,0.306,0.3109,0.3128,0.319,0.3212,0.3286,0.3331,0.3321,0.3424,0.3406,0.3246,0.3232,0.3085,0.305,0.2951,0.3485,0.3485,0.3484,0.3484,0,0.2841,0.2844,0.2891,0.2894,0.2916,0.2942,0.2962,0.2995,0.3033,0.3055,0.3119,0.3138,0.324,0.3301,0.3355,0.3323,0.3445,0.3262,0.3236,0.3072,0.3037,0.2945,0.2935,0.3487,0.3486,0.3486,0.3485,0,0.2785,0.282,0.2837,0.2881,0.2896,0.2908,0.2953,0.297,0.2998,0.3032,0.3056,0.3125,0.3171,0.3251,0.3348,0.3303,0.3197,0.329,0.3072,0.3015,0.2673,0.2672,0.2507,0.2458,0.3104,0.3099,0.3095,0,0.2757,0.2761,0.2825,0.2857,0.288,0.2903,0.2932,0.296,0.2972,0.3011,0.3028,0.307,0.3065,0.3099,0.3049,0.3057,0.3033,0.2851,0.2773,0.2618,0.2603,0.2539,0.251,0.2599,0.2591,0.2585,0.2579,0,0.2717,0.275,0.2789,0.2849,0.2886,0.2908,0.2933,0.2922,0.2947,0.2944,0.2924,0.2915,0.2874,0.2727,0.2685,0.2684,0.2637,0.271,0.2634,0.2254,0.2104,0.2054,0.2597,0.2523,0.2528,0.2532,0.2536,0.2538,0.2715,0.2735,0.2804,0.2839,0.2891,0.2885,0.2836,0.2841,0.2806,0.2713,0.2794,0.2662,0.2498,0.2359,0.2339,0.2072,0.2198,0.196,0.1997,0.1965,0.1816,0.2194,0.2018,0.202,0.2023,0.2025,0.2027,0,0.2685,0.2722,0.2785,0.2823,0.283,0.2857,0.2818,0.2711,0.2589,0.2535,0.246,0.2196,0.1972,0.1837,0.1539,0.1395,0.1401,0.1346,0.1269,0.1304,0.1704,0.1575,0.1188,0.1188,0.1188,0.1188,0.1188,0.1189,0.2695,0.2714,0.2725,0.2727,0.2741,0.2632,0.2554,0.2411,0.2305,0.202,0.1807,0.1749,0.1534,0.1198,0.0936,0.0922,0.0897,0.0749,0.0877,0.1189,0.1252,0.1311,0.1185,0.0722,0.0722,0.0383,0.0381,0.0378]},{"header":{"parameterUnit":"m.s-1","parameterCategory":2,"la1":30.2991,"la2":30.254,"lo1":-89.0895,"lo2":-89.0444,"dy":0.0017,"dx":0.0017,"nx":28,"ny":28,"refTime":"2023-09-12T21:00:00:Z","depth":"0","parameterNumber":3,"parameterNumberName":"V-component_of_CURRENTS"},"data":[0,0,0,0,0,0,0,0,0,0,0,0,0,0,0,0,0,0,0,0,0,0,0,0,0,0,0,0,0,0,0,0,0,0,0,0,0,0,0,0,0,0,0,0,0,0,0,0,0,0,0,0,0,0,0,0,0,0,0.0067,0.0067,0,0.0054,0.0053,0.0053,0.0047,0.0047,0.0047,0.0047,-0.004,-0.0043,-0.0045,0,0,0,0,0,0,0,0,0,0,0,0,0,0.0133,0.0132,0.0067,0.0067,0.0067,0.0054,0.0053,0.0053,0.0046,0.0047,0.0047,0.0047,-0.0039,-0.0042,-0.0045,0,0,0,0,0,0,0,0,0,0,0,0,0,0.011,0.0131,0.0067,0.0062,0.0062,0.0054,0.0053,0.0053,0.0046,0.0047,0.0047,0.0047,-0.0039,-0.0042,-0.0045,-0.0069,0,0,-0.0056,-0.0058,0,0,0,0,0,0,0,0,0.0111,0.0107,0.0063,0.0063,0.0062,0.0052,0.0045,0.0009,0.0046,0.0052,0.0047,0.0047,-0.0016,-0.0021,-0.0024,-0.0073,-0.0076,-0.0057,-0.0059,-0.006,-0.0061,0,0,0,0,0,0,0,0.0113,0.0108,0.0061,0.0063,0.0062,0.0077,0.0073,0.0039,0.0016,0.0051,0.0051,0.005,-0.0017,-0.002,-0.0026,-0.0078,-0.0056,-0.006,-0.0062,-0.0063,-0.0131,-0.0131,0,0,0,0,0,0,0.0113,0.0109,0.0062,0.0061,0.0088,0.0075,0.0071,0.0055,0.0018,0.0013,0.005,0.005,-0.0014,-0.0022,-0.0029,-0.0026,-0.006,-0.0063,-0.0066,-0.0131,-0.0131,-0.0131,0,0,0,0,0,0,0.0114,0.0108,0.0062,0.0087,0.0082,0.0074,0.0056,0.0055,0.0055,0.0018,0.0012,0.0053,-0.0014,-0.0024,-0.006,-0.0031,-0.0065,-0.0068,-0.0132,-0.0131,-0.0131,-0.0042,0,0,0,0,0,0,0.0116,0.0108,0.0094,0.0086,0.008,0.0058,0.0056,0.0054,0.0055,0.0055,0.0018,0.001,-0.0015,-0.0054,-0.0063,-0.0037,-0.0071,-0.0132,-0.0131,-0.0131,-0.0045,-0.0039,-0.0033,0,0,0,0,0,0.0118,0.0106,0.0093,0.0088,0.0061,0.0058,0.0056,0.0051,0.0055,0.0053,0.0028,0.0011,-0.0056,-0.0057,-0.0068,-0.0041,-0.0132,-0.0132,-0.0131,-0.0048,-0.004,-0.0033,0,0,0,0,0,0,0.0137,0.0104,0.009,0.007,0.0062,0.0057,0.0053,0.0055,0.0037,0.0033,0.0004,-0.0007,-0.0021,-0.0054,-0.0054,-0.0061,-0.0093,-0.0094,-0.0026,-0.0019,-0.0013,0.0033,-0.0074,0,0,0,0,0,0.0131,0.0117,0.0088,0.0082,0.0066,0.006,0.0058,0.0056,0.0041,0.0035,0.0015,-0.0011,-0.0027,-0.0041,-0.0068,-0.0083,-0.0065,-0.0071,-0.0064,-0.0059,-0.003,0.0041,0.0058,-0.0128,-0.0128,-0.0128,0,0,0.0147,0.0125,0.012,0.0086,0.0074,0.0067,0.0058,0.0055,0.0067,0.0025,0.0026,0.0005,-0.0028,-0.0034,-0.0043,-0.0057,-0.0005,-0.0058,-0.0052,-0.0026,0.0044,0.0062,0.0079,-0.0128,-0.0128,-0.0128,0,0,0.0181,0.0136,0.0133,0.0116,0.0093,0.0081,0.0081,0.0068,0.007,0.0061,0.0048,0.0053,0.0003,0.0014,0.0006,0.0028,0.0025,0.0005,0.0077,0.0145,0.0163,0.0178,0.0197,0.0214,0.0011,0.0011,0.0011,0,0.02,0.0183,0.0139,0.0129,0.0122,0.0088,0.0092,0.0087,0.0076,0.0097,0.0066,0.0076,0.004,0.0082,0.0087,0.005,0.0067,0.0055,0.0159,0.0175,0.0189,0.0205,0.0223,0.0015,0.0015,0.0014,0.0014,0,0.0223,0.0212,0.0208,0.0178,0.0165,0.0161,0.0135,0.0138,0.0131,0.0145,0.0179,0.0152,0.0173,0.0158,0.0122,0.0209,0.0179,0.0162,0.0152,0.0215,0.0225,0.0242,0.0021,0.002,0.0018,0.0017,0,0,0.0255,0.0231,0.0229,0.0228,0.0185,0.0182,0.019,0.0203,0.0248,0.0237,0.0315,0.0293,0.0308,0.0302,0.028,0.033,0.0424,0.029,0.0292,0.033,0.0548,0.0512,0.0525,0.0432,0.0436,0.0439,0.0505,0,0.0286,0.0295,0.0269,0.0284,0.0275,0.0247,0.027,0.0283,0.0297,0.0358,0.037,0.0416,0.0353,0.0379,0.0423,0.0434,0.0476,0.0406,0.0464,0.0465,0.0445,0.0548,0.0531,0.0589,0.0522,0.0524,0.0526,0,0.03,0.0306,0.0328,0.0341,0.0335,0.0343,0.0377,0.0395,0.0462,0.0485,0.0545,0.0557,0.0629,0.0565,0.0644,0.0603,0.0587,0.0584,0.0587,0.0544,0.0463,0.0519,0.0622,0.0597,0.0552,0.055,0.0548,0,0.0334,0.0341,0.0366,0.0362,0.037,0.0391,0.0397,0.0446,0.049,0.0583,0.0649,0.0717,0.077,0.079,0.0764,0.0722,0.0846,0.0786,0.0736,0.073,0.0725,0.0713,0.0838,0.0858,0.0858,0.0857,0.0857,0,0.0358,0.0373,0.0387,0.0397,0.0437,0.0429,0.0496,0.0521,0.0606,0.0698,0.0726,0.0825,0.0836,0.0891,0.0844,0.0854,0.0913,0.0787,0.0773,0.0747,0.0737,0.0719,0.0693,0.086,0.0859,0.0859,0.0858,0,0.0377,0.0389,0.0415,0.0442,0.0451,0.0476,0.0527,0.0593,0.0664,0.0793,0.0835,0.0937,0.1016,0.1002,0.1042,0.0965,0.0957,0.094,0.0881,0.086,0.0771,0.0748,0.0869,0.0877,0.0915,0.0915,0.0915,0,0.0385,0.0405,0.0442,0.0463,0.0471,0.0509,0.0552,0.0611,0.069,0.0865,0.0947,0.1064,0.1157,0.1189,0.1105,0.105,0.0994,0.0953,0.0875,0.081,0.0776,0.0762,0.0759,0.0885,0.0885,0.0885,0.0885,0,0.0401,0.042,0.0446,0.0495,0.0533,0.0582,0.0649,0.0718,0.0827,0.0951,0.1122,0.1216,0.1261,0.1236,0.1145,0.1074,0.0948,0.0944,0.0928,0.0827,0.0776,0.076,0.0754,0.0882,0.0883,0.0883,0.0883,0.0883,0.0418,0.0438,0.0487,0.053,0.0581,0.0664,0.0711,0.0817,0.0952,0.1142,0.1222,0.1361,0.1317,0.1216,0.1134,0.0945,0.0957,0.0853,0.0846,0.085,0.0833,0.08,0.0876,0.0876,0.0876,0.0876,0.0876,0,0.0453,0.048,0.0519,0.059,0.0661,0.0676,0.079,0.0859,0.1019,0.1194,0.1336,0.1375,0.1313,0.1194,0.0971,0.0863,0.0831,0.0802,0.0794,0.0806,0.0828,0.08,0.0802,0.0802,0.0802,0.0802,0.0802,0.0802,0.0482,0.0528,0.0549,0.0658,0.0703,0.0791,0.085,0.0965,0.1087,0.1246,0.1319,0.1383,0.1302,0.1048,0.0861,0.0807,0.0781,0.0746,0.0762,0.0761,0.0765,0.0769,0.0739,0.0729,0.0729,0.0745,0.0745,0.0745]}],[{"header":{"parameterUnit":"m.s-1","parameterCategory":2,"la1":30.2991,"la2":30.254,"lo1":-89.0895,"lo2":-89.0444,"dy":0.0017,"dx":0.0017,"nx":28,"ny":28,"refTime":"2023-09-12T21:00:00:Z","depth":"2","parameterNumber":2,"parameterNumberName":"U-component_of_CURRENTS"},"data":[0,0,0,0,0,0,0,0,0,0,0,0,0,0,0,0,0,0,0,0,0,0,0,0,0,0,0,0,0,0,0,0,0,0,0,0,0,0,0,0,0,0,0,0,0,0,0,0,0,0,0,0,0,0,0,0,0,0,0.1722,0.1721,0,0.1672,0.1672,0.1672,0.1593,0.1591,0.159,0.1588,0.1546,0.1547,0.1547,0,0,0,0,0,0,0,0,0,0,0,0,0,0.1682,0.1684,0.1722,0.1721,0.172,0.1672,0.1672,0.1671,0.1593,0.1591,0.1589,0.1587,0.1546,0.1547,0.1547,0,0,0,0,0,0,0,0,0,0,0,0,0,0.1675,0.1685,0.1722,0.1674,0.1669,0.1673,0.1672,0.1671,0.1593,0.1591,0.1589,0.1587,0.1546,0.1547,0.1547,0.1597,0,0,0.1549,0.1549,0,0,0,0,0,0,0,0,0.1675,0.1676,0.1682,0.1678,0.1672,0.1635,0.1643,0.1646,0.1594,0.1624,0.1588,0.1585,0.1578,0.1575,0.1573,0.1595,0.1594,0.1549,0.1549,0.1549,0.155,0,0,0,0,0,0,0,0.1676,0.1678,0.1704,0.1681,0.1675,0.1633,0.163,0.1643,0.1616,0.1621,0.1615,0.1608,0.1575,0.1573,0.1572,0.1593,0.1549,0.1549,0.155,0.155,0.1773,0.1779,0,0,0,0,0,0,0.1686,0.1679,0.1705,0.1702,0.1666,0.1636,0.1632,0.1651,0.1615,0.1607,0.161,0.1604,0.1573,0.1571,0.157,0.1683,0.1549,0.155,0.155,0.1768,0.1775,0.1781,0,0,0,0,0,0,0.1686,0.169,0.1707,0.1686,0.1685,0.1639,0.166,0.1651,0.1672,0.1606,0.1598,0.1642,0.1571,0.1569,0.1595,0.1678,0.155,0.1551,0.1761,0.177,0.1778,0.1873,0,0,0,0,0,0,0.1685,0.1691,0.1731,0.1688,0.1687,0.1721,0.1662,0.1651,0.1669,0.1662,0.1632,0.1623,0.1569,0.1595,0.1596,0.1676,0.1551,0.1754,0.1765,0.1775,0.1863,0.1883,0.1901,0,0,0,0,0,0.1685,0.1697,0.1734,0.1738,0.1737,0.1722,0.1719,0.1677,0.1673,0.1689,0.167,0.1626,0.1665,0.1598,0.1599,0.1681,0.1749,0.1762,0.1774,0.1854,0.1879,0.1901,0,0,0,0,0,0,0.1677,0.169,0.1728,0.1745,0.1759,0.1708,0.1697,0.1713,0.1715,0.1709,0.1665,0.1656,0.1718,0.1707,0.1636,0.179,0.1716,0.1729,0.1777,0.18,0.182,0.1817,0.1551,0,0,0,0,0,0.1713,0.1764,0.1751,0.1794,0.1772,0.1767,0.1767,0.176,0.1743,0.1742,0.1738,0.175,0.1775,0.1786,0.1797,0.1869,0.1848,0.1942,0.1961,0.1977,0.1985,0.2036,0.2058,0.1822,0.1822,0.1822,0,0,0.1733,0.1751,0.1782,0.1804,0.1789,0.1791,0.1758,0.1759,0.1806,0.1741,0.1799,0.1809,0.1811,0.1875,0.1909,0.187,0.2036,0.1993,0.2005,0.2004,0.2051,0.2073,0.2093,0.1831,0.1829,0.1828,0,0,0.1758,0.1795,0.1821,0.1831,0.1837,0.1832,0.1851,0.1842,0.1864,0.1932,0.191,0.197,0.2008,0.2025,0.2038,0.219,0.2133,0.2226,0.2315,0.2366,0.2384,0.2399,0.2385,0.2399,0.2239,0.2239,0.224,0,0.1808,0.1823,0.1828,0.1835,0.1842,0.1858,0.1868,0.1903,0.194,0.1971,0.1962,0.2067,0.208,0.2158,0.2224,0.2229,0.2224,0.2206,0.2384,0.2399,0.2413,0.2395,0.2409,0.2245,0.2245,0.2244,0.2244,0,0.1805,0.1849,0.1839,0.1886,0.1902,0.191,0.1938,0.1998,0.2046,0.2086,0.2188,0.2215,0.2276,0.2325,0.2317,0.2454,0.2405,0.2388,0.2301,0.2441,0.2415,0.2427,0.2254,0.2252,0.225,0.2249,0,0,0.1861,0.1854,0.1861,0.1891,0.1926,0.1934,0.2013,0.2071,0.2125,0.2217,0.2297,0.2403,0.2435,0.246,0.2486,0.2554,0.2664,0.2535,0.2534,0.248,0.2735,0.2503,0.2492,0.2673,0.2676,0.2679,0.2668,0,0.1879,0.1889,0.189,0.1948,0.1944,0.199,0.2056,0.2136,0.2203,0.2293,0.2376,0.2458,0.2482,0.2531,0.2612,0.2648,0.2706,0.2666,0.2645,0.2644,0.2386,0.2503,0.2328,0.2287,0.2679,0.2681,0.2682,0,0.1857,0.1887,0.1907,0.1971,0.1966,0.2018,0.2106,0.2173,0.2291,0.2344,0.2447,0.2509,0.2649,0.265,0.2769,0.274,0.2768,0.2782,0.2781,0.2536,0.2434,0.2222,0.2293,0.2701,0.27,0.2698,0.2697,0,0.1845,0.1894,0.1917,0.1938,0.2007,0.205,0.2095,0.2192,0.225,0.2389,0.2454,0.2583,0.2689,0.2742,0.2778,0.2806,0.2847,0.2878,0.268,0.266,0.2492,0.245,0.2968,0.2968,0.2968,0.2968,0.2969,0,0.1831,0.1868,0.1918,0.1938,0.1993,0.2045,0.2113,0.2173,0.2281,0.2357,0.2488,0.2563,0.2736,0.2775,0.2782,0.2719,0.2845,0.2702,0.2657,0.2517,0.2481,0.2828,0.2812,0.2968,0.2968,0.2968,0.2968,0,0.1816,0.1828,0.1881,0.1959,0.1978,0.2025,0.2104,0.2161,0.2259,0.2369,0.2431,0.2606,0.2658,0.2698,0.2778,0.2718,0.2665,0.2604,0.2382,0.231,0.2458,0.2449,0.2449,0.2441,0.2434,0.2429,0.2424,0,0.1784,0.1806,0.1892,0.1905,0.1943,0.2008,0.2047,0.214,0.2205,0.2358,0.2416,0.2534,0.2544,0.2489,0.2426,0.2325,0.2478,0.2109,0.215,0.2456,0.2414,0.2414,0.2414,0.1978,0.197,0.1963,0.1958,0,0.175,0.1796,0.1844,0.1901,0.1936,0.1992,0.2061,0.2097,0.2222,0.2274,0.232,0.2319,0.2296,0.2122,0.1993,0.1931,0.2105,0.1968,0.2381,0.2099,0.2001,0.1961,0.198,0.19,0.1906,0.191,0.1913,0.1915,0.1743,0.1777,0.1839,0.1881,0.1931,0.1986,0.196,0.2034,0.2069,0.2079,0.2136,0.2005,0.1976,0.1675,0.1554,0.1509,0.1698,0.1665,0.1692,0.1724,0.1634,0.1526,0.1317,0.1319,0.1321,0.1323,0.1325,0,0.1734,0.1787,0.1801,0.1852,0.186,0.1936,0.1969,0.19,0.1854,0.1844,0.1766,0.1495,0.1315,0.1297,0.1119,0.1059,0.114,0.1043,0.1174,0.1229,0.1279,0.1174,0.0731,0.073,0.0728,0.0727,0,0,0.1748,0.1751,0.1742,0.1734,0.1788,0.1766,0.1746,0.1643,0.1571,0.1406,0.1269,0.1225,0.122,0.0952,0.0901,0.0796,0.1023,0.0761,0.1236,0.1446,0.1495,0.1625,0.1521,0,0,0,0,0]},{"header":{"parameterUnit":"m.s-1","parameterCategory":2,"la1":30.2991,"la2":30.254,"lo1":-89.0895,"lo2":-89.0444,"dy":0.0017,"dx":0.0017,"nx":28,"ny":28,"refTime":"2023-09-12T21:00:00:Z","depth":"2","parameterNumber":3,"parameterNumberName":"V-component_of_CURRENTS"},"data":[0,0,0,0,0,0,0,0,0,0,0,0,0,0,0,0,0,0,0,0,0,0,0,0,0,0,0,0,0,0,0,0,0,0,0,0,0,0,0,0,0,0,0,0,0,0,0,0,0,0,0,0,0,0,0,0,0,0,0.0029,0.003,0,0.0077,0.0078,0.0079,0.0126,0.0126,0.0127,0.0127,0.008,0.0079,0.0077,0,0,0,0,0,0,0,0,0,0,0,0,0,0.0048,0.0048,0.0029,0.003,0.003,0.0077,0.0078,0.0079,0.0126,0.0126,0.0127,0.0127,0.0081,0.0079,0.0077,0,0,0,0,0,0,0,0,0,0,0,0,0,0.0066,0.0047,0.0029,0.0056,0.0058,0.0077,0.0078,0.008,0.0126,0.0126,0.0127,0.0127,0.0081,0.0079,0.0077,0.0056,0,0,0.007,0.0069,0,0,0,0,0,0,0,0,0.0065,0.0066,0.0052,0.0054,0.0057,0.0092,0.0068,0.0066,0.0126,0.0105,0.0127,0.0127,0.0072,0.0071,0.0087,0.0054,0.0052,0.007,0.0069,0.0068,0.0067,0,0,0,0,0,0,0,0.0064,0.0065,0.0053,0.0052,0.0055,0.0089,0.0092,0.0069,0.0087,0.0107,0.0109,0.0108,0.0074,0.0089,0.0085,0.0051,0.007,0.0068,0.0067,0.0066,-0.0024,-0.0025,0,0,0,0,0,0,0.0045,0.0063,0.0051,0.0054,0.0057,0.0088,0.0091,0.0084,0.009,0.0091,0.0107,0.011,0.0092,0.0088,0.0084,0.0056,0.0068,0.0066,0.0064,-0.0023,-0.0024,-0.0025,0,0,0,0,0,0,0.0045,0.0043,0.0049,0.0057,0.0059,0.0086,0.0078,0.0085,0.0093,0.0091,0.0091,0.0108,0.0092,0.0087,0.0076,0.0055,0.0065,0.0063,-0.0022,-0.0023,-0.0025,0.0002,0,0,0,0,0,0,0.0046,0.0043,0.0028,0.0055,0.0058,0.0063,0.0078,0.0085,0.009,0.0093,0.009,0.0088,0.0092,0.008,0.0074,0.0052,0.0061,-0.002,-0.0022,-0.0024,0.0003,0.0002,0.0001,0,0,0,0,0,0.0046,0.0046,0.0027,0.0025,0.0037,0.0063,0.0068,0.0092,0.0089,0.0099,0.0102,0.0087,0.0061,0.0078,0.0071,0.0048,-0.0019,-0.0022,-0.0024,0.0003,0.0002,0.0001,0,0,0,0,0,0,0.0057,0.005,0.0031,0.0028,0.0035,0.0069,0.0079,0.0082,0.0094,0.009,0.0088,0.0086,0.0065,0.0047,0.0065,0.0012,0.0011,0.0008,0.0034,0.0033,0.0032,0.0074,0.0059,0,0,0,0,0,0.0043,0.0027,0.0034,0.0024,0.003,0.0044,0.0052,0.0063,0.0077,0.0083,0.0085,0.0069,0.005,0.0037,0.0025,-0.0002,0.0022,-0.0029,-0.0029,-0.003,-0.0003,0.0061,0.007,-0.0033,-0.0033,-0.0033,0,0,0.0044,0.0032,0.0025,0.0022,0.0031,0.0048,0.0052,0.0065,0.0071,0.007,0.0082,0.007,0.0043,0.0028,0.0013,0.0011,-0.0003,-0.0033,-0.0032,-0.0005,0.006,0.0071,0.008,-0.0035,-0.0035,-0.0034,0,0,0.006,0.0027,0.0033,0.0037,0.0037,0.0043,0.004,0.0066,0.007,0.007,0.0068,0.0067,0.0027,0.0033,0.0018,-0.0,-0.0004,-0.0045,-0.0017,0.0043,0.0054,0.0064,0.0057,0.0066,-0.005,-0.005,-0.005,0,0.0058,0.0058,0.0042,0.0056,0.0053,0.0039,0.0056,0.0059,0.0076,0.0077,0.0072,0.0065,0.0041,0.004,0.0029,0.0003,0.0013,-0.0007,0.0049,0.0059,0.0069,0.006,0.007,-0.0049,-0.0049,-0.0049,-0.0049,0,0.0091,0.0085,0.0092,0.0087,0.0087,0.0094,0.0089,0.0089,0.0074,0.0081,0.0084,0.0085,0.0088,0.0056,0.0033,0.0065,0.0038,0.005,0.0066,0.0083,0.0069,0.0079,-0.0047,-0.0048,-0.0048,-0.0048,0,0,0.0099,0.0111,0.0111,0.0111,0.0097,0.0106,0.0098,0.0098,0.0105,0.0111,0.0144,0.0112,0.0125,0.0111,0.0091,0.0131,0.0178,0.0111,0.0114,0.0127,0.0266,0.0224,0.023,0.0207,0.021,0.0212,0.0211,0,0.0123,0.0155,0.0146,0.016,0.0174,0.0145,0.0143,0.0134,0.0125,0.0155,0.0157,0.0178,0.0137,0.0147,0.0181,0.0202,0.0214,0.0175,0.0227,0.0228,0.0211,0.0245,0.025,0.025,0.0221,0.0223,0.0224,0,0.0164,0.0167,0.0195,0.019,0.0194,0.0194,0.0178,0.0176,0.0191,0.0192,0.0222,0.0237,0.0285,0.026,0.032,0.0296,0.0275,0.0284,0.0285,0.0258,0.0208,0.0236,0.027,0.0241,0.024,0.0238,0.0237,0,0.0186,0.0203,0.0216,0.0215,0.0212,0.0205,0.0193,0.0189,0.0197,0.0234,0.0279,0.0318,0.039,0.0393,0.0382,0.0365,0.0449,0.0432,0.0362,0.0355,0.038,0.0371,0.0472,0.0472,0.0472,0.0472,0.0472,0,0.0214,0.0222,0.0228,0.0232,0.0241,0.0224,0.0232,0.0229,0.0252,0.0312,0.0312,0.0411,0.0442,0.0483,0.0427,0.0428,0.0482,0.0386,0.0378,0.0377,0.0369,0.0387,0.0377,0.0472,0.0472,0.0472,0.0472,0,0.0237,0.0245,0.0263,0.0259,0.0258,0.026,0.0257,0.0271,0.0291,0.0385,0.0416,0.052,0.06,0.056,0.0597,0.0518,0.0491,0.0455,0.0412,0.04,0.0333,0.0324,0.0409,0.0408,0.0407,0.0407,0.0406,0,0.0252,0.0268,0.0283,0.0297,0.029,0.0288,0.0293,0.0289,0.0323,0.0472,0.0545,0.066,0.0755,0.0742,0.0641,0.0524,0.0503,0.0426,0.0407,0.0357,0.034,0.0331,0.0324,0.0419,0.0418,0.0418,0.0418,0,0.027,0.0281,0.029,0.0326,0.0337,0.035,0.0367,0.0406,0.0456,0.058,0.0773,0.0868,0.087,0.0826,0.0639,0.0551,0.0446,0.0415,0.0434,0.0426,0.0365,0.0347,0.034,0.0415,0.0415,0.0415,0.0415,0.0415,0.0282,0.0296,0.0327,0.0366,0.0383,0.0428,0.0465,0.053,0.0649,0.0821,0.0904,0.1009,0.0938,0.0721,0.0599,0.0437,0.045,0.0375,0.0377,0.0379,0.0374,0.0315,0.0349,0.0349,0.0349,0.0349,0.0349,0,0.0307,0.0333,0.0368,0.0426,0.0477,0.0464,0.0535,0.0598,0.0789,0.0882,0.1029,0.0931,0.0861,0.0728,0.05,0.0377,0.0366,0.0327,0.0354,0.0357,0.0361,0.0355,0.0325,0.0324,0.0324,0.0324,0,0,0.0321,0.0372,0.0406,0.0516,0.055,0.0603,0.0655,0.0772,0.0837,0.0958,0.0976,0.0981,0.0852,0.0677,0.0549,0.0436,0.0409,0.0398,0.0429,0.0481,0.0485,0.0401,0.0397,0,0,0,0,0]}],[{"header":{"parameterUnit":"m.s-1","parameterCategory":2,"la1":30.2991,"la2":30.254,"lo1":-89.0895,"lo2":-89.0444,"dy":0.0017,"dx":0.0017,"nx":28,"ny":28,"refTime":"2023-09-12T21:00:00:Z","depth":"4","parameterNumber":2,"parameterNumberName":"U-component_of_CURRENTS"},"data":[0,0,0,0,0,0,0,0,0,0,0,0,0,0,0,0,0,0,0,0,0,0,0,0,0,0,0,0,0,0,0,0,0,0,0,0,0,0,0,0,0,0,0,0,0,0,0,0,0,0,0,0,0,0,0,0,0,0,0.0478,0.0479,0,0.0443,0.0442,0.0441,0.0382,0.0381,0.0381,0.0381,0.0377,0.0378,0.0378,0,0,0,0,0,0,0,0,0,0,0,0,0,0.0489,0.0489,0.0478,0.0479,0.0479,0.0443,0.0442,0.0441,0.0382,0.0381,0.0381,0.038,0.0377,0.0378,0.0378,0,0,0,0,0,0,0,0,0,0,0,0,0,0.0465,0.0488,0.0478,0.045,0.0448,0.0443,0.0442,0.0441,0.0382,0.0381,0.0381,0.038,0.0377,0.0378,0.0378,0.0395,0,0,0.038,0.038,0,0,0,0,0,0,0,0,0.0467,0.0464,0.0454,0.0452,0.045,0.0422,0.0445,0.0429,0.0382,0.04,0.0381,0.038,0.0401,0.0399,0.0383,0.0394,0.0394,0.038,0.038,0.038,0.038,0,0,0,0,0,0,0,0.0468,0.0465,0.0457,0.0455,0.0452,0.0438,0.0433,0.0441,0.0399,0.0398,0.0395,0.0403,0.0398,0.0383,0.0383,0.0394,0.038,0.038,0.038,0.0381,0.0406,0.0406,0,0,0,0,0,0,0.0488,0.0467,0.0458,0.0457,0.0465,0.0439,0.0433,0.0426,0.0398,0.0395,0.0404,0.0401,0.0382,0.0383,0.0383,0.0427,0.038,0.0381,0.0381,0.0405,0.0406,0.0406,0,0,0,0,0,0,0.0488,0.0487,0.046,0.0468,0.0464,0.044,0.0432,0.0426,0.043,0.0404,0.04,0.0418,0.0382,0.0382,0.0382,0.0426,0.0381,0.0381,0.0405,0.0405,0.0406,0.0499,0,0,0,0,0,0,0.0488,0.0487,0.0474,0.0469,0.0465,0.046,0.0434,0.0426,0.0438,0.0434,0.0415,0.0412,0.0381,0.0381,0.0383,0.0426,0.0382,0.0404,0.0405,0.0406,0.0496,0.0503,0.0509,0,0,0,0,0,0.0489,0.0464,0.0473,0.0472,0.0452,0.0461,0.0457,0.0433,0.044,0.0436,0.0417,0.0414,0.0387,0.0382,0.0383,0.0428,0.0404,0.0405,0.0406,0.0493,0.0502,0.0509,0,0,0,0,0,0,0.045,0.0457,0.0466,0.0442,0.0461,0.0454,0.045,0.0456,0.0439,0.044,0.0418,0.0413,0.0424,0.041,0.0406,0.0432,0.0396,0.0398,0.0462,0.047,0.0477,0.0515,0.0382,0,0,0,0,0,0.0445,0.0427,0.0454,0.0434,0.0459,0.047,0.0471,0.0467,0.0463,0.0455,0.0447,0.0435,0.0427,0.0436,0.0413,0.0444,0.0451,0.047,0.0477,0.0483,0.0511,0.0571,0.0588,0.0409,0.0409,0.0409,0,0,0.0425,0.0426,0.0415,0.0427,0.0445,0.0466,0.0466,0.0483,0.0489,0.0461,0.0464,0.0456,0.0433,0.0443,0.0451,0.0444,0.0527,0.0484,0.049,0.0515,0.0574,0.0593,0.0609,0.0409,0.0409,0.0409,0,0,0.0393,0.0395,0.0389,0.0412,0.045,0.0461,0.0483,0.0506,0.0508,0.0519,0.0497,0.0527,0.0505,0.0513,0.0511,0.0552,0.0549,0.0538,0.0625,0.0683,0.07,0.0715,0.0712,0.0726,0.0557,0.0557,0.0557,0,0.039,0.037,0.039,0.0408,0.0421,0.0474,0.049,0.0507,0.0517,0.0533,0.0525,0.0547,0.0545,0.0586,0.06,0.0576,0.0581,0.0601,0.0698,0.0713,0.0726,0.072,0.0734,0.0562,0.0561,0.0561,0.056,0,0.0365,0.0361,0.0372,0.0407,0.0419,0.0446,0.0491,0.052,0.0548,0.0567,0.0615,0.0625,0.0641,0.0659,0.0649,0.0745,0.0704,0.0691,0.0689,0.0751,0.0738,0.0752,0.0568,0.0567,0.0565,0.0564,0,0,0.0368,0.0358,0.0367,0.0375,0.0425,0.0438,0.0477,0.0529,0.0571,0.0613,0.0664,0.0711,0.0746,0.0749,0.0762,0.085,0.0952,0.0831,0.0832,0.0848,0.1043,0.0913,0.0914,0.0962,0.0966,0.0969,0.0983,0,0.0372,0.0363,0.036,0.0375,0.0395,0.0441,0.0471,0.0518,0.0567,0.0628,0.0707,0.0757,0.0768,0.0808,0.089,0.0936,0.0997,0.0947,0.0963,0.0963,0.0859,0.093,0.098,0.0992,0.0995,0.0998,0.0999,0,0.0387,0.0365,0.0361,0.0366,0.0385,0.0402,0.047,0.0504,0.0606,0.0654,0.0741,0.0784,0.0915,0.0919,0.1052,0.1017,0.1042,0.1085,0.1085,0.0951,0.0861,0.0923,0.1023,0.1021,0.1019,0.1018,0.1016,0,0.0386,0.0387,0.0368,0.0374,0.0388,0.0406,0.0438,0.0519,0.0564,0.0696,0.0749,0.0868,0.094,0.103,0.1098,0.1091,0.1226,0.1206,0.1101,0.1089,0.116,0.1145,0.1302,0.1302,0.1302,0.1302,0.1302,0,0.0399,0.0399,0.0371,0.036,0.0367,0.0397,0.0441,0.0502,0.06,0.0672,0.077,0.0843,0.0986,0.1057,0.1114,0.1136,0.1222,0.1137,0.1107,0.1188,0.1176,0.1167,0.1151,0.1303,0.1303,0.1302,0.1302,0,0.0411,0.0395,0.0374,0.0359,0.0362,0.0376,0.0424,0.0466,0.0576,0.0676,0.0731,0.085,0.0949,0.1028,0.1161,0.1131,0.1189,0.1163,0.1215,0.1182,0.1002,0.0991,0.1063,0.1059,0.1055,0.1052,0.105,0,0.0393,0.0387,0.0354,0.0338,0.0331,0.0353,0.0371,0.0457,0.0511,0.0675,0.0721,0.0835,0.0906,0.097,0.1056,0.1109,0.1101,0.1094,0.1099,0.1026,0.099,0.0983,0.0976,0.1045,0.1044,0.1043,0.1042,0,0.0354,0.0364,0.0335,0.0307,0.0302,0.0289,0.0332,0.0366,0.0498,0.0598,0.0719,0.0783,0.0849,0.0923,0.0945,0.0993,0.1098,0.106,0.1067,0.1072,0.1005,0.0971,0.0968,0.1031,0.1032,0.1033,0.1034,0,0.0316,0.0302,0.0279,0.0264,0.0249,0.0226,0.0252,0.0321,0.0384,0.059,0.0624,0.0748,0.0854,0.0859,0.0901,0.0914,0.0911,0.0897,0.0913,0.0926,0.0875,0.077,0.0721,0,0,0,0,0,0.0256,0.0249,0.023,0.0193,0.0191,0.0188,0.0223,0.027,0.0405,0.0477,0.0561,0.064,0.071,0.0754,0.0741,0.0797,0.088,0.0774,0.0863,0.0966,0.098,0.0931,0,0,0,0,0,0,0.0211,0.0199,0.0206,0.0146,0.0135,0.0117,0.0135,0.0225,0.0275,0.0432,0.047,0.0594,0.0654,0.0727,0.0735,0.0745,0.0783,0.0849,0.0846,0.0959,0.0971,0.0982,0.0936,0,0,0,0,0]},{"header":{"parameterUnit":"m.s-1","parameterCategory":2,"la1":30.2991,"la2":30.254,"lo1":-89.0895,"lo2":-89.0444,"dy":0.0017,"dx":0.0017,"nx":28,"ny":28,"refTime":"2023-09-12T21:00:00:Z","depth":"4","parameterNumber":3,"parameterNumberName":"V-component_of_CURRENTS"},"data":[0,0,0,0,0,0,0,0,0,0,0,0,0,0,0,0,0,0,0,0,0,0,0,0,0,0,0,0,0,0,0,0,0,0,0,0,0,0,0,0,0,0,0,0,0,0,0,0,0,0,0,0,0,0,0,0,0,0,0.0246,0.0247,0,0.0304,0.0305,0.0306,0.037,0.0371,0.0371,0.0372,0.0415,0.0415,0.0416,0,0,0,0,0,0,0,0,0,0,0,0,0,0.0211,0.0212,0.0246,0.0247,0.0247,0.0304,0.0305,0.0306,0.037,0.0371,0.0371,0.0372,0.0414,0.0415,0.0416,0,0,0,0,0,0,0,0,0,0,0,0,0,0.0248,0.0212,0.0246,0.0282,0.0285,0.0304,0.0305,0.0307,0.037,0.0371,0.0371,0.0372,0.0414,0.0415,0.0416,0.041,0,0,0.042,0.042,0,0,0,0,0,0,0,0,0.0246,0.025,0.0276,0.0279,0.0283,0.0326,0.0308,0.0339,0.037,0.0343,0.0372,0.0372,0.038,0.0384,0.0401,0.0412,0.0413,0.042,0.042,0.0421,0.0421,0,0,0,0,0,0,0,0.0243,0.0248,0.0275,0.0276,0.028,0.0301,0.0307,0.0315,0.0361,0.0346,0.0349,0.0347,0.0382,0.04,0.0402,0.0414,0.042,0.0421,0.0421,0.0422,0.0465,0.0466,0,0,0,0,0,0,0.0224,0.0246,0.0273,0.0276,0.026,0.03,0.0308,0.0316,0.0361,0.0367,0.0346,0.035,0.0397,0.0401,0.0404,0.0423,0.0421,0.0422,0.0423,0.0465,0.0465,0.0466,0,0,0,0,0,0,0.0223,0.0226,0.027,0.0257,0.0264,0.03,0.0308,0.0316,0.0345,0.0361,0.0368,0.0367,0.0398,0.0402,0.0429,0.0424,0.0422,0.0423,0.0464,0.0465,0.0466,0.0445,0,0,0,0,0,0,0.0222,0.0226,0.0242,0.0256,0.0263,0.0288,0.0307,0.0317,0.0339,0.0345,0.038,0.0385,0.0399,0.0427,0.043,0.0426,0.0424,0.0464,0.0465,0.0465,0.0445,0.0445,0.0445,0,0,0,0,0,0.0221,0.0248,0.0243,0.0247,0.0279,0.0288,0.0295,0.0326,0.0339,0.0355,0.0383,0.0384,0.0435,0.0429,0.0432,0.0427,0.0463,0.0464,0.0465,0.0445,0.0445,0.0445,0,0,0,0,0,0,0.0243,0.0256,0.0252,0.0281,0.028,0.0297,0.0316,0.0328,0.0364,0.0371,0.0392,0.0399,0.0418,0.043,0.0422,0.0445,0.0448,0.045,0.0432,0.0432,0.0432,0.0428,0.0425,0,0,0,0,0,0.0248,0.0277,0.0269,0.0293,0.0286,0.0298,0.0311,0.0322,0.0343,0.0361,0.0387,0.041,0.0423,0.0434,0.045,0.0462,0.0448,0.0463,0.0462,0.0462,0.0463,0.0431,0.0427,0.047,0.047,0.047,0,0,0.0258,0.0273,0.0286,0.0299,0.03,0.0306,0.031,0.0322,0.0342,0.0356,0.0405,0.041,0.0427,0.0444,0.0453,0.0455,0.0443,0.0464,0.0463,0.0464,0.0431,0.0427,0.0423,0.047,0.047,0.047,0,0,0.0286,0.0299,0.0321,0.0321,0.032,0.0324,0.0324,0.0336,0.0358,0.0387,0.04,0.0404,0.0443,0.0445,0.0451,0.046,0.0442,0.0465,0.0462,0.043,0.0426,0.0421,0.0394,0.0387,0.0466,0.0466,0.0466,0,0.0291,0.0322,0.0326,0.0338,0.0342,0.0329,0.0336,0.0354,0.0383,0.0396,0.0404,0.0432,0.0442,0.0443,0.0449,0.0457,0.0438,0.0457,0.0427,0.0423,0.0419,0.0392,0.0385,0.0465,0.0466,0.0466,0.0466,0,0.0322,0.0346,0.0353,0.0367,0.0374,0.0377,0.0377,0.0396,0.0411,0.0424,0.0434,0.0437,0.0453,0.0447,0.0454,0.043,0.0425,0.0425,0.042,0.0413,0.0385,0.0378,0.0464,0.0465,0.0465,0.0465,0,0,0.0319,0.0366,0.0367,0.0379,0.0387,0.0392,0.0417,0.0428,0.0445,0.0455,0.0469,0.0469,0.0456,0.0461,0.0449,0.0417,0.037,0.0411,0.0409,0.0372,0.0297,0.0297,0.029,0.0358,0.0357,0.0356,0.0287,0,0.0329,0.037,0.0392,0.0419,0.0426,0.043,0.0458,0.0471,0.0482,0.0496,0.0471,0.0487,0.0466,0.0466,0.0425,0.0391,0.0352,0.0389,0.0321,0.032,0.031,0.0282,0.0353,0.0281,0.028,0.0279,0.0278,0,0.0341,0.037,0.0407,0.0448,0.0449,0.0471,0.0496,0.0522,0.0531,0.0538,0.0522,0.0511,0.0474,0.0456,0.0369,0.0392,0.0344,0.0306,0.0303,0.0306,0.0307,0.0294,0.0265,0.0266,0.0267,0.0268,0.0269,0,0.0336,0.0378,0.0416,0.0426,0.0467,0.0492,0.0518,0.0539,0.0564,0.0569,0.057,0.0525,0.0506,0.0433,0.0362,0.0365,0.0256,0.0255,0.0203,0.0202,0.0232,0.0237,0.0182,0.0182,0.0182,0.0182,0.0182,0,0.0342,0.0366,0.0422,0.044,0.0482,0.0509,0.0557,0.0573,0.0596,0.062,0.0594,0.0575,0.0497,0.0431,0.0359,0.026,0.0254,0.0193,0.018,0.0227,0.0232,0.0227,0.0233,0.0179,0.018,0.0181,0.0181,0,0.0336,0.0371,0.0411,0.0465,0.0488,0.0522,0.0594,0.0628,0.0641,0.0663,0.0669,0.0613,0.0531,0.0442,0.0327,0.0265,0.0173,0.0138,0.0194,0.0188,0.0139,0.0145,0.007,0.007,0.0069,0.0069,0.0068,0,0.0342,0.0366,0.0432,0.0464,0.0496,0.0558,0.061,0.0654,0.0688,0.068,0.0683,0.0614,0.0568,0.039,0.0301,0.0165,0.0145,0.01,0.0112,0.013,0.0125,0.0132,0.0139,0.0067,0.0067,0.0067,0.0067,0,0.0343,0.0369,0.0402,0.0477,0.0537,0.0601,0.0673,0.0684,0.073,0.0743,0.0689,0.0606,0.0504,0.0381,0.028,0.0181,0.0133,0.0093,0.0094,0.0105,0.0126,0.0123,0.013,0.0065,0.0065,0.0065,0.0065,0,0.0345,0.0363,0.0419,0.0481,0.0547,0.0607,0.0651,0.0689,0.0718,0.071,0.0688,0.0583,0.0538,0.0387,0.029,0.02,0.0175,0.0145,0.0143,0.0144,0.019,0.0229,0.0179,0,0,0,0,0,0.0345,0.0368,0.0426,0.049,0.0554,0.0606,0.0674,0.0715,0.0745,0.0714,0.0703,0.0614,0.046,0.0386,0.0294,0.0272,0.0156,0.016,0.0121,0.0054,0.0056,0.0098,0,0,0,0,0,0,0.0344,0.0387,0.0417,0.0481,0.053,0.0616,0.0655,0.0689,0.067,0.0678,0.0593,0.059,0.0437,0.0513,0.029,0.0264,0.0225,0.0103,0.0101,0.0052,0.0054,0.0056,0.0101,0,0,0,0,0]}]]